Weather History for EGPN - January, 2015

Change the Weather History Date:

Friday, January 2, 2015

  Actual Average Record
Temperature  
Mean Temperature 40 °F -  
Max Temperature 42 °F 42 °F 44 °F (2013)
Min Temperature 37 °F 35 °F 23 °F (2002)
Degree Days  
Heating Degree Days 26    
Moisture  
Dew Point 36 °F    
Average Humidity 87    
Maximum Humidity 93    
Minimum Humidity 76    
Precipitation  
Precipitation 0.00 in - - ()
Sea Level Pressure  
Sea Level Pressure 30.02 in    
Wind  
Wind Speed 18 mph ()    
Max Wind Speed 30 mph    
Max Gust Speed 44 mph    
Visibility 6.2 miles    
Events Rain    
Averages and records for this station are not official NWS values.
T = Trace of Precipitation, MM = Missing Value Source: Averaged Metar Reports

Daily Weather History Graph

Daily Weather History Graph

Search for Another Location

Airport or City:

Trip Planner

Search our weather history database for the weather conditions in past years. The results will help you decide how hot, cold, wet, or windy it might be!

Date:

Astronomy

Jan. 02, 2015 Rise Set
Actual Time 8:46 AM GMT 3:46 PM GMT
Civil Twilight 7:58 AM GMT 4:33 PM GMT
Nautical Twilight 7:08 AM GMT 5:23 PM GMT
Astronomical Twilight 6:22 AM GMT 6:09 PM GMT
Moon 2:10 PM GMT (1/2) 5:41 AM GMT (1/2)
Length of Visible Light 8h 35m
Length of Day
7h 00m
Waxing Gibbous, 93% of the Moon is Illuminated
Jan 2
Waxing Gibbous
Jan 5
Full
Jan 13
Last Quarter
Jan 20
New
Jan 27
First Quarter

Hourly Weather History & Observations

Time (GMT) Temp. Windchill Dew Point Humidity Pressure Visibility Wind Dir Wind Speed Gust Speed Precip Events Conditions
6:20 AM 39.2 °F 30.2 °F 37.4 °F 93% 29.83 in 6.2 mi West 17.3 mph - N/A   Scattered Clouds
6:50 AM 37.4 °F 28.9 °F 35.6 °F 93% 29.86 in 6.2 mi West 13.8 mph - N/A   Scattered Clouds
7:20 AM 37.4 °F 26.4 °F 35.6 °F 93% 29.89 in 6.2 mi WNW 23.0 mph - N/A Rain Light Rain Showers
7:50 AM 37.4 °F 25.9 °F 33.8 °F 87% 29.92 in 5.0 mi West 25.3 mph 43.7 mph N/A Rain Rain Showers
8:20 AM 39.2 °F 29.0 °F 37.4 °F 93% 29.92 in 6.2 mi West 21.9 mph - N/A   Mostly Cloudy
8:50 AM 39.2 °F 30.2 °F 35.6 °F 87% 29.95 in 6.2 mi West 17.3 mph 28.8 mph N/A Rain Light Rain Showers
9:20 AM 39.2 °F 28.0 °F 37.4 °F 93% 29.95 in 6.2 mi WSW 26.5 mph - N/A   Scattered Clouds
9:50 AM 37.4 °F 28.9 °F 35.6 °F 93% 29.95 in 6.2 mi West 13.8 mph - N/A   Partly Cloudy
10:20 AM 39.2 °F 30.5 °F 35.6 °F 87% 29.95 in 6.2 mi West 16.1 mph - N/A   Partly Cloudy
10:50 AM 41.0 °F 30.5 °F 35.6 °F 81% 29.98 in 6.2 mi WSW 26.5 mph - N/A   Partly Cloudy
11:20 AM 39.2 °F 27.4 °F 37.4 °F 93% 29.98 in 6.2 mi WSW 29.9 mph - N/A   Partly Cloudy
11:50 AM 41.0 °F 31.1 °F 35.6 °F 81% 30.01 in 6.2 mi West 23.0 mph - N/A   Partly Cloudy
12:20 PM 41.0 °F 30.0 °F 35.6 °F 81% 30.04 in 6.2 mi West 28.8 mph 41.4 mph N/A Rain Rain Showers
12:50 PM 42.8 °F 33.8 °F 39.2 °F 87% 30.06 in 6.2 mi West 21.9 mph - N/A   Scattered Clouds
1:20 PM 41.0 °F 31.4 °F 37.4 °F 87% 30.06 in 6.2 mi WSW 21.9 mph - N/A   Scattered Clouds
1:50 PM 39.2 °F 31.2 °F 35.6 °F 87% 30.06 in 6.2 mi West 13.8 mph - N/A   Scattered Clouds
2:20 PM 41.0 °F 34.3 °F 37.4 °F 87% 30.06 in 6.2 mi WSW 11.5 mph - N/A   Partly Cloudy
2:50 PM 41.0 °F 32.2 °F 33.8 °F 76% 30.06 in 6.2 mi West 18.4 mph - N/A   Partly Cloudy
3:20 PM 41.0 °F 31.6 °F 33.8 °F 76% 30.06 in 6.2 mi West 20.7 mph - N/A   Partly Cloudy
3:50 PM 41.0 °F 31.1 °F 35.6 °F 81% 30.09 in 6.2 mi West 23.0 mph - N/A   Partly Cloudy
4:20 PM 39.2 °F 30.5 °F 33.8 °F 81% 30.09 in 6.2 mi West 16.1 mph - N/A   Partly Cloudy
4:50 PM 39.2 °F 30.5 °F 35.6 °F 87% 30.09 in 6.2 mi West 16.1 mph - N/A   Partly Cloudy
5:20 PM 41.0 °F 32.5 °F 35.6 °F 81% 30.12 in 6.2 mi WSW 17.3 mph - N/A   Partly Cloudy
5:50 PM 39.2 °F 28.5 °F 35.6 °F 87% 30.12 in 6.2 mi WSW 24.2 mph - N/A   Partly Cloudy
6:20 PM 39.2 °F 29.8 °F 35.6 °F 87% 30.09 in 6.2 mi WSW 18.4 mph - N/A   Partly Cloudy
6:50 PM 39.2 °F 30.8 °F 35.6 °F 87% 30.09 in 6.2 mi WSW 15.0 mph - N/A Rain Light Rain
7:20 PM 39.2 °F 28.7 °F 37.4 °F 93% 30.09 in 6.2 mi WSW 23.0 mph - N/A Rain Rain
7:50 PM 39.2 °F 29.3 °F 37.4 °F 93% 30.06 in 6.2 mi WSW 20.7 mph - N/A Rain Rain
8:20 PM 39.2 °F 29.0 °F 37.4 °F 93% 30.06 in 6.2 mi WSW 21.9 mph - N/A Rain Rain